When you browse on this site, cookies collect data to enhance your experience and personalize the content and advertising you see.
Visit our Privacy Policy to learn more. By continuing to use the site, you agree to this use of cookies and data.
  • en France
  • Liste des pays
  • À 7 jours
  • Température de l'eau
  • Carte météo
  • Widgets météo
  • user-avatar
    Se connecter

    Météo par heure à Louboumbashi

    Ce jour, 26 Mai, Mardi

    Heure Température Précipitation Vent Pression Humidité
    00:00 +33°C° 0 mm 4 m/s 719 mmHg 47%
    01:00 +33°C° 0 mm 4 m/s 719 mmHg 48%
    02:00 +32°C° 0 mm 4 m/s 719 mmHg 50%
    03:00 +31°C° 0 mm 3 m/s 719 mmHg 54%
    04:00 +30°C° 0 mm 2 m/s 719 mmHg 58%
    05:00 +30°C° 0 mm 1 m/s 719 mmHg 62%
    06:00 +31°C° 0 mm 1 m/s 720 mmHg 60%
    07:00 +31°C° 0 mm 1 m/s 720 mmHg 57%
    08:00 +32°C° 0 mm 1 m/s 720 mmHg 54%
    09:00 +34°C° 0 mm 2 m/s 721 mmHg 45%
    10:00 +36°C° 0 mm 2 m/s 721 mmHg 36%
    11:00 +38°C° 0 mm 2 m/s 721 mmHg 28%
    12:00 +38°C° 0 mm 2 m/s 720 mmHg 25%
    13:00 +39°C° 0 mm 2 m/s 719 mmHg 23%
    14:00 +40°C° 0 mm 2 m/s 719 mmHg 21%
    15:00 +41°C° 0 mm 2 m/s 718 mmHg 20%
    16:00 +41°C° 0 mm 2 m/s 718 mmHg 19%
    17:00 +41°C° 0 mm 2 m/s 717 mmHg 18%
    18:00 +41°C° 0 mm 2 m/s 718 mmHg 20%
    19:00 +40°C° 0 mm 3 m/s 718 mmHg 22%
    20:00 +39°C° 0 mm 3 m/s 718 mmHg 24%
    21:00 +38°C° 0 mm 3 m/s 718 mmHg 27%
    22:00 +38°C° 0 mm 3 m/s 719 mmHg 31%
    23:00 +37°C° 0 mm 3 m/s 719 mmHg 34%

    Demain, 27 Mai, Mercredi

    Heure Température Précipitation Vent Pression Humidité
    00:00 +36°C° 0 mm 3 m/s 719 mmHg 36%
    01:00 +36°C° 0 mm 3 m/s 718 mmHg 38%
    02:00 +35°C° 0 mm 2 m/s 718 mmHg 40%
    03:00 +34°C° 0 mm 2 m/s 719 mmHg 43%
    04:00 +34°C° 0 mm 2 m/s 719 mmHg 46%
    05:00 +32°C° 0 mm 1 m/s 719 mmHg 49%
    06:00 +34°C° 0 mm 2 m/s 720 mmHg 47%
    07:00 +34°C° 0 mm 2 m/s 720 mmHg 46%
    08:00 +35°C° 0 mm 3 m/s 721 mmHg 45%
    09:00 +36°C° 0 mm 3 m/s 721 mmHg 41%
    10:00 +37°C° 0 mm 2 m/s 721 mmHg 37%
    11:00 +38°C° 0 mm 2 m/s 721 mmHg 33%
    12:00 +39°C° 0 mm 2 m/s 720 mmHg 29%
    13:00 +40°C° 0 mm 1 m/s 719 mmHg 25%
    14:00 +38°C° 0 mm 0 m/s 719 mmHg 21%
    15:00 +41°C° 0 mm 1 m/s 718 mmHg 20%
    16:00 +41°C° 0 mm 1 m/s 718 mmHg 19%
    17:00 +41°C° 0 mm 1 m/s 717 mmHg 18%
    18:00 +41°C° 0 mm 1 m/s 718 mmHg 18%
    19:00 +41°C° 0 mm 1 m/s 718 mmHg 18%
    20:00 +41°C° 0 mm 1 m/s 719 mmHg 18%
    21:00 +40°C° 0 mm 1 m/s 719 mmHg 19%
    22:00 +40°C° 0 mm 1 m/s 719 mmHg 20%
    23:00 +39°C° 0 mm 1 m/s 719 mmHg 21%

    Après-demain, 28 Mai, Jeudi

    Heure Température Précipitation Vent Pression Humidité
    00:00 +38°C° 0 mm 2 m/s 719 mmHg 25%
    01:00 +37°C° 0 mm 3 m/s 719 mmHg 30%
    02:00 +36°C° 0 mm 4 m/s 718 mmHg 34%
    03:00 +36°C° 0 mm 3 m/s 718 mmHg 37%
    04:00 +35°C° 0 mm 3 m/s 719 mmHg 40%
    05:00 +35°C° 0 mm 2 m/s 719 mmHg 43%
    06:00 +35°C° 0 mm 2 m/s 719 mmHg 43%
    07:00 +35°C° 0 mm 2 m/s 720 mmHg 43%
    08:00 +35°C° 0 mm 2 m/s 720 mmHg 42%
    09:00 +36°C° 0 mm 2 m/s 720 mmHg 39%
    10:00 +36°C° 0 mm 1 m/s 720 mmHg 36%
    11:00 +35°C° 0 mm 0 m/s 720 mmHg 33%
    12:00 +36°C° 0 mm 0 m/s 720 mmHg 29%
    13:00 +40°C° 0 mm 1 m/s 719 mmHg 25%
    14:00 +41°C° 0 mm 1 m/s 718 mmHg 21%
    15:00 +41°C° 0 mm 1 m/s 718 mmHg 20%
    16:00 +41°C° 0 mm 1 m/s 717 mmHg 19%
    17:00 +42°C° 0 mm 1 m/s 717 mmHg 18%
    18:00 +42°C° 0 mm 1 m/s 717 mmHg 18%
    19:00 +41°C° 0 mm 1 m/s 717 mmHg 17%
    20:00 +41°C° 0 mm 1 m/s 718 mmHg 17%
    21:00 +40°C° 0 mm 1 m/s 718 mmHg 20%
    22:00 +39°C° 0 mm 2 m/s 718 mmHg 22%
    23:00 +39°C° 0 mm 2 m/s 718 mmHg 25%

    29 Mai, Vendredi

    Heure Température Précipitation Vent Pression Humidité
    00:00 +38°C° 0 mm 3 m/s 718 mmHg 29%
    01:00 +37°C° 0 mm 3 m/s 718 mmHg 33%
    02:00 +36°C° 0 mm 4 m/s 717 mmHg 37%
    03:00 +36°C° 0 mm 4 m/s 718 mmHg 37%
    04:00 +36°C° 0 mm 3 m/s 718 mmHg 38%
    05:00 +35°C° 0 mm 3 m/s 718 mmHg 39%
    06:00 +35°C° 0 mm 2 m/s 719 mmHg 39%
    07:00 +36°C° 0 mm 2 m/s 720 mmHg 38%
    08:00 +36°C° 0 mm 2 m/s 720 mmHg 38%
    09:00 +37°C° 0 mm 2 m/s 720 mmHg 36%
    10:00 +38°C° 0 mm 2 m/s 720 mmHg 34%
    11:00 +39°C° 0 mm 2 m/s 720 mmHg 32%
    12:00 +40°C° 0 mm 2 m/s 719 mmHg 28%
    13:00 +40°C° 0 mm 2 m/s 718 mmHg 24%
    14:00 +41°C° 0 mm 2 m/s 718 mmHg 21%
    15:00 +42°C° 0 mm 2 m/s 717 mmHg 20%
    16:00 +42°C° 0 mm 2 m/s 717 mmHg 18%
    17:00 +42°C° 0 mm 2 m/s 716 mmHg 17%
    18:00 +42°C° 0 mm 2 m/s 717 mmHg 16%
    19:00 +42°C° 0 mm 2 m/s 717 mmHg 15%
    20:00 +43°C° 0 mm 3 m/s 717 mmHg 15%
    21:00 +42°C° 0 mm 3 m/s 717 mmHg 13%
    22:00 +40°C° 0 mm 2 m/s 717 mmHg 11%
    23:00 +39°C° 0 mm 2 m/s 717 mmHg 9%

    30 Mai, Samedi

    Heure Température Précipitation Vent Pression Humidité
    00:00 +39°C° 0 mm 2 m/s 717 mmHg 10%
    01:00 +38°C° 0 mm 2 m/s 717 mmHg 11%
    02:00 +37°C° 0 mm 2 m/s 716 mmHg 11%
    03:00 +36°C° 0 mm 2 m/s 717 mmHg 13%
    04:00 +36°C° 0 mm 2 m/s 717 mmHg 14%
    05:00 +35°C° 0 mm 2 m/s 718 mmHg 15%
    06:00 +35°C° 0 mm 2 m/s 718 mmHg 19%
    07:00 +36°C° 0 mm 3 m/s 719 mmHg 22%
    08:00 +36°C° 0 mm 3 m/s 719 mmHg 26%
    09:00 +38°C° 0 mm 2 m/s 720 mmHg 22%
    10:00 +39°C° 0 mm 2 m/s 720 mmHg 18%
    11:00 +40°C° 0 mm 2 m/s 720 mmHg 14%
    12:00 +41°C° 0 mm 2 m/s 719 mmHg 13%
    13:00 +42°C° 0 mm 2 m/s 718 mmHg 12%
    14:00 +43°C° 0 mm 2 m/s 718 mmHg 11%
    15:00 +43°C° 0 mm 2 m/s 717 mmHg 10%
    16:00 +44°C° 0 mm 3 m/s 717 mmHg 9%
    17:00 +45°C° 0 mm 3 m/s 716 mmHg 9%
    18:00 +43°C° 0 mm 2 m/s 717 mmHg 9%
    19:00 +42°C° 0 mm 2 m/s 717 mmHg 9%
    20:00 +41°C° 0 mm 1 m/s 717 mmHg 10%
    21:00 +40°C° 0 mm 1 m/s 717 mmHg 11%
    22:00 +40°C° 0 mm 1 m/s 717 mmHg 11%
    23:00 +39°C° 0 mm 1 m/s 717 mmHg 12%

    31 Mai, Dimanche

    Heure Température Précipitation Vent Pression Humidité
    00:00 +38°C° 0 mm 2 m/s 717 mmHg 14%
    01:00 +37°C° 0 mm 3 m/s 717 mmHg 17%
    02:00 +36°C° 0 mm 4 m/s 717 mmHg 19%
    03:00 +35°C° 0 mm 4 m/s 717 mmHg 28%
    04:00 +34°C° 0 mm 4 m/s 718 mmHg 37%
    05:00 +33°C° 0 mm 5 m/s 718 mmHg 46%
    06:00 +33°C° 0 mm 5 m/s 719 mmHg 46%
    07:00 +33°C° 0 mm 5 m/s 719 mmHg 45%
    08:00 +34°C° 0 mm 6 m/s 720 mmHg 45%
    09:00 +35°C° 0 mm 6 m/s 720 mmHg 40%
    10:00 +38°C° 0 mm 6 m/s 720 mmHg 35%
    11:00 +40°C° 0 mm 6 m/s 720 mmHg 31%
    12:00 +41°C° 0 mm 5 m/s 719 mmHg 27%
    13:00 +42°C° 0 mm 5 m/s 719 mmHg 24%
    14:00 +43°C° 0 mm 4 m/s 718 mmHg 20%
    15:00 +43°C° 0 mm 3 m/s 718 mmHg 19%
    16:00 +42°C° 0 mm 1 m/s 717 mmHg 18%
    17:00 +39°C° 0 mm 0 m/s 717 mmHg 17%
    18:00 +41°C° 0 mm 2 m/s 717 mmHg 21%
    19:00 +41°C° 0 mm 4 m/s 717 mmHg 24%
    20:00 +40°C° 0 mm 5 m/s 718 mmHg 28%
    21:00 +38°C° 0 mm 6 m/s 718 mmHg 33%
    22:00 +36°C° 0 mm 7 m/s 718 mmHg 37%
    23:00 +35°C° 0 mm 8 m/s 718 mmHg 42%
    Voir plus